Theta_e
318 322 322 322 322 319 317 317 318 318 316 316 317 317 317 316 316 316 317 316 316 317 317 317 318 317 316 317 317 318 318 319 318 319 319 320 321 321 321 320 320 322 320 318 318 319 319 318 319 320 320 321 322 322 322 322 321 321 321 320 320 319 319 319 319 319 319 319 319 321 323 324 324 324 324 324 323 323 325 328 329 330 329 329 329 329
317 322 324 321 319 318 317 317 317 317 316 316 317 317 318 318 318 317 318 316 315 318 318 318 318 317 316 317 318 318 318 319 318 318 318 318 319 320 321 321 322 321 321 323 322 319 319 319 319 319 319 319 321 321 320 321 321 320 320 320 319 319 319 319 318 318 318 318 317 318 320 321 322 322 322 321 321 321 322 325 327 328 328 328 328 328
320 321 321 318 318 318 318 317 317 316 317 317 318 318 318 321 320 318 318 317 315 318 319 319 318 317 317 317 317 318 318 318 318 318 319 320 319 320 320 321 323 323 325 331 327 321 319 319 319 318 318 318 319 319 320 320 320 320 319 319 319 318 318 318 317 317 316 316 315 316 317 318 319 320 319 318 319 320 321 323 324 325 326 327 327 327
320 319 318 318 319 318 317 316 316 316 317 320 320 318 319 323 321 317 317 318 316 317 320 320 320 318 317 318 317 317 318 317 318 319 319 321 321 320 321 322 325 325 329 333 329 323 319 318 318 318 317 317 318 318 318 318 319 319 318 318 318 318 317 317 316 316 315 314 314 315 317 318 318 318 317 316 318 320 320 321 322 323 324 325 326 327
319 318 318 319 318 318 318 317 318 317 317 322 324 321 320 321 320 318 319 320 318 319 322 322 323 323 321 321 321 320 321 319 319 320 320 321 322 323 324 326 328 328 330 332 329 324 319 317 317 317 317 317 317 318 318 317 317 317 317 317 317 317 316 316 316 315 314 314 314 316 317 318 317 316 315 315 316 317 318 319 321 322 324 324 325 325
318 318 320 321 319 319 320 318 321 321 317 320 324 323 321 319 320 323 324 324 321 320 323 323 325 328 324 324 326 325 325 324 322 322 322 322 322 324 326 327 329 330 330 331 328 323 318 316 317 316 316 316 316 317 317 317 317 316 316 316 317 316 316 315 315 314 314 314 315 316 316 316 315 315 314 314 315 316 317 319 320 322 323 323 323 323
318 317 320 324 323 322 322 320 323 325 318 316 324 327 324 321 322 324 324 325 323 321 322 323 324 325 320 320 323 323 323 323 323 325 325 324 324 326 328 327 328 329 331 332 328 324 318 315 316 316 315 316 316 316 316 316 316 316 316 316 316 316 315 314 314 314 314 314 314 315 315 315 315 314 314 314 315 317 319 319 320 321 321 322 321 322
320 320 322 324 325 326 324 321 324 324 319 320 326 329 325 322 323 324 324 324 325 324 324 325 324 324 322 319 319 319 319 320 321 323 325 325 325 327 328 330 331 331 334 335 330 326 322 316 315 315 315 315 315 315 316 316 316 316 315 315 315 315 315 314 313 314 314 314 314 314 314 314 314 315 314 313 314 317 319 320 320 320 320 320 320 320
322 323 326 325 325 326 323 325 328 323 322 325 326 326 326 325 325 325 323 324 327 326 326 328 326 324 323 320 320 320 318 320 322 322 323 325 326 328 329 333 335 334 334 333 331 328 322 316 315 315 315 315 315 315 315 316 315 315 315 315 315 315 314 313 313 313 314 313 313 313 313 313 314 314 314 312 313 316 319 320 320 319 319 318 318 318
322 319 322 325 324 324 323 326 331 327 324 325 325 326 327 327 325 324 323 324 327 325 325 330 328 318 315 317 320 320 319 322 322 322 324 325 328 334 336 336 336 334 331 328 328 325 318 315 316 315 314 315 314 315 315 315 315 315 315 315 315 314 314 313 312 312 312 313 313 312 312 313 314 314 314 313 314 316 318 318 319 319 318 317 316 317
317 314 317 322 321 320 320 321 325 327 325 324 325 327 326 324 325 326 325 324 327 326 324 330 328 315 312 319 321 321 324 326 323 321 323 322 328 338 340 337 335 333 329 325 324 320 314 315 315 314 314 314 314 315 315 315 315 315 315 314 314 314 313 312 312 312 311 311 312 312 312 313 314 314 314 313 314 315 316 317 318 317 317 317 317 317
319 318 319 320 318 318 320 320 321 322 324 325 325 325 326 326 326 326 324 325 328 326 323 327 327 317 314 318 320 322 326 326 322 320 320 320 327 337 339 335 331 330 328 323 323 320 316 316 314 313 314 314 314 315 315 315 315 314 314 314 314 314 313 312 311 311 310 310 311 311 312 313 314 314 314 313 313 314 315 315 315 314 314 314 315 316
324 323 321 320 318 318 321 323 321 320 323 326 325 325 326 325 326 327 328 330 329 324 323 326 326 320 316 317 321 323 322 322 322 321 321 322 325 332 338 336 331 329 326 323 322 321 319 317 313 311 313 313 314 315 315 315 314 314 314 314 314 313 313 312 311 311 310 309 310 311 312 313 314 314 314 313 313 313 313 313 313 313 312 312 313 314
323 323 323 320 318 318 321 323 321 320 322 324 325 327 327 323 324 326 327 330 330 325 323 325 327 325 319 319 322 321 320 321 323 324 325 326 326 328 335 340 336 330 326 325 323 321 321 317 311 311 312 313 314 314 314 314 314 314 313 313 313 313 312 312 311 310 309 309 310 311 312 312 313 314 313 313 313 313 313 313 313 314 315 315 315 316
320 323 324 320 319 320 320 321 321 321 320 321 322 324 326 322 319 321 322 326 329 328 323 321 326 328 320 318 324 324 323 323 323 324 325 327 331 330 330 338 341 334 327 326 325 323 320 314 310 311 312 312 313 314 314 314 313 313 313 313 312 312 312 312 311 310 309 308 309 310 311 312 313 313 313 312 312 312 313 313 313 315 317 318 318 319
318 320 323 321 319 318 319 322 321 320 319 320 321 322 326 324 317 319 322 322 325 326 325 324 326 327 321 319 322 322 323 324 324 325 324 325 329 328 328 333 336 335 330 328 327 326 320 313 311 312 311 312 313 313 314 314 313 313 312 312 312 312 312 311 311 310 309 308 308 309 310 311 312 313 313 312 311 312 313 314 314 316 317 317 317 318
320 322 325 322 319 317 320 324 323 322 320 320 323 323 326 326 319 320 323 322 321 321 321 322 321 320 317 317 320 319 318 320 323 325 325 326 327 327 329 331 330 332 334 331 329 328 322 314 312 312 311 312 312 313 314 313 313 312 312 312 311 311 311 310 310 310 309 307 307 308 309 310 311 312 312 311 310 311 312 313 314 314 315 315 315 316
323 324 323 322 321 320 320 323 325 326 324 324 326 324 323 326 323 321 323 323 323 321 320 319 317 316 315 317 320 319 318 318 321 324 324 325 328 327 329 331 327 329 337 337 331 328 322 315 312 312 312 311 312 312 313 313 313 312 311 311 311 311 310 310 310 310 309 307 306 307 308 309 310 310 311 311 311 312 312 312 312 312 312 312 313 315
321 321 321 320 320 319 318 319 322 324 323 323 325 323 322 326 326 323 321 321 321 320 320 320 317 316 317 318 319 318 320 322 322 323 323 323 325 326 326 329 325 325 335 340 333 330 326 316 312 313 312 312 312 312 313 313 312 312 311 311 311 310 310 310 310 309 308 307 306 307 307 308 309 309 310 311 312 312 312 312 311 311 310 310 310 312
319 318 321 319 317 319 318 319 322 322 321 320 321 322 324 325 325 325 323 320 321 319 318 319 318 316 318 320 319 318 321 323 321 322 323 322 323 324 325 326 327 328 335 342 337 333 329 317 312 313 312 312 312 312 313 313 312 312 311 311 310 310 310 309 310 309 308 307 306 306 307 308 308 308 309 310 311 312 312 311 310 309 309 308 308 310
319 316 320 319 317 320 320 319 319 320 320 320 321 323 325 323 323 326 325 321 322 321 319 320 318 316 318 321 321 321 321 321 322 323 324 324 324 325 327 328 333 337 338 341 339 334 327 315 311 312 312 311 312 312 313 313 312 311 311 310 310 310 310 310 309 309 308 307 306 305 306 307 308 308 308 309 310 310 310 310 310 309 309 308 308 309
318 315 320 322 319 321 321 319 319 320 320 318 318 320 321 322 322 323 324 322 323 324 322 322 319 317 320 321 320 321 323 323 324 326 326 327 327 328 331 333 338 341 339 338 334 330 325 314 310 311 311 310 311 311 312 312 312 311 311 310 310 309 310 309 309 309 308 307 306 305 305 306 307 308 308 308 309 308 308 309 309 309 309 308 307 307
316 316 320 323 322 321 320 320 323 324 323 321 320 318 318 320 321 321 323 325 326 325 322 323 321 317 319 324 323 323 326 325 327 328 327 326 325 328 335 338 338 337 336 334 330 327 320 311 309 310 309 309 310 310 311 312 311 311 311 310 310 309 309 309 309 309 308 307 305 304 304 305 306 307 307 307 307 307 307 308 309 309 309 308 306 306
316 318 319 319 321 322 320 319 320 321 322 323 324 323 321 320 319 321 324 327 328 326 323 324 322 319 321 326 326 328 329 327 328 328 325 324 325 329 336 341 339 336 333 330 327 323 315 309 309 309 307 308 309 309 310 311 311 311 310 310 310 309 309 309 309 309 308 307 305 304 304 304 304 305 306 306 306 306 307 307 308 308 308 307 307 306
318 320 321 319 320 323 323 322 321 320 320 322 324 324 324 322 322 323 323 324 325 326 326 324 321 319 323 326 325 326 327 324 325 326 325 325 329 333 335 337 339 338 336 329 324 321 317 314 311 307 306 307 307 308 310 310 311 311 310 310 309 309 309 309 308 309 308 307 306 304 303 303 303 304 305 305 305 306 306 307 307 307 307 306 306 306
319 320 319 318 319 320 322 324 324 323 322 321 323 324 324 324 325 324 322 322 323 323 323 323 320 318 320 323 323 323 324 323 324 325 325 325 329 333 334 336 338 337 335 330 327 325 323 319 313 307 305 307 307 307 308 309 310 310 310 310 309 309 309 308 308 308 308 307 306 304 303 302 303 303 303 304 304 304 306 306 305 305 305 305 305 305
325 322 317 318 318 316 319 325 325 323 322 321 322 322 322 323 325 324 323 323 321 320 321 321 320 318 318 318 320 321 323 324 323 323 324 325 328 331 332 334 333 331 331 332 332 330 325 321 317 310 305 306 307 307 307 308 309 309 309 309 309 309 308 308 308 308 308 307 306 304 303 302 302 302 302 302 303 303 304 304 304 303 303 304 304 303
325 322 319 318 318 316 319 326 325 322 321 320 320 320 320 322 324 324 324 323 320 321 320 319 319 320 318 316 317 319 321 322 321 321 322 323 325 328 329 329 328 327 330 333 331 329 326 323 322 315 306 305 307 306 307 307 308 308 309 309 309 309 308 308 308 307 307 307 305 304 303 302 301 302 302 302 302 302 303 303 303 302 302 302 302 302
323 321 321 320 320 319 320 324 324 322 321 320 319 319 319 321 323 323 323 321 321 322 320 319 320 321 318 316 317 320 321 319 318 318 319 320 321 324 325 325 327 329 331 332 329 327 325 323 325 320 309 305 306 306 306 307 307 308 308 308 309 308 308 308 307 307 307 306 305 304 303 301 301 301 301 301 301 301 302 302 302 301 300 301 301 300
321 320 320 320 320 321 321 321 322 322 323 322 321 321 319 320 321 321 321 321 321 321 320 320 321 320 318 317 317 318 320 319 317 317 318 319 318 320 322 324 328 329 330 329 327 325 324 324 324 319 310 305 306 306 305 306 306 306 307 308 308 308 308 307 307 306 306 306 305 304 302 301 301 301 301 300 300 300 300 300 300 299 299 299 299 299
319 319 320 319 319 320 320 319 320 321 322 322 323 323 322 322 321 320 320 320 320 321 320 320 321 320 318 317 317 317 318 318 318 318 317 318 318 320 322 324 326 327 326 325 323 323 324 323 322 320 313 308 307 307 306 306 306 306 306 307 307 308 308 307 306 306 305 305 304 303 302 301 300 300 300 300 300 300 299 299 298 297 297 297 297 297
317 318 320 319 319 319 319 319 320 320 320 321 321 322 321 321 321 320 321 321 320 321 320 321 321 320 317 317 318 318 317 318 319 318 317 318 319 319 321 321 322 323 323 322 321 322 322 321 321 321 316 310 308 308 307 306 306 305 305 306 307 307 307 306 306 305 304 304 303 302 301 300 300 300 300 300 299 299 299 298 297 296 296 295 295 294
316 317 319 319 320 320 319 319 319 319 320 321 320 319 319 319 319 320 321 322 321 320 321 321 320 318 318 318 318 318 318 318 318 318 318 318 318 319 321 321 321 321 322 322 322 322 321 320 318 316 313 312 311 311 310 309 307 306 307 307 306 306 306 306 306 305 304 303 302 301 301 300 299 299 299 299 299 298 298 297 296 295 295 294 293 293
315 316 317 318 320 321 320 319 319 320 321 323 321 319 318 318 318 319 320 320 319 320 321 320 319 318 319 319 318 318 318 317 318 318 317 317 317 319 321 321 320 320 320 321 321 320 320 318 315 313 313 314 314 313 313 311 309 308 309 307 306 305 305 306 305 304 303 303 301 301 300 299 299 298 298 298 298 297 297 296 295 294 294 293 292 291
314 315 316 316 318 320 320 319 321 322 322 323 322 320 318 317 317 318 319 318 318 319 320 320 320 320 319 319 318 318 318 317 317 317 317 317 316 317 319 319 318 318 318 318 318 318 318 316 312 312 313 313 314 314 314 312 310 309 308 306 305 305 305 305 305 304 303 302 301 300 300 299 298 298 297 297 296 296 295 294 294 293 292 292 292 291
315 314 315 317 317 319 320 321 322 323 321 322 323 321 319 319 319 319 320 320 318 318 319 319 319 318 319 319 319 318 318 319 318 317 317 317 317 319 320 318 317 318 318 318 318 317 316 314 312 312 312 313 314 314 313 313 312 309 307 306 305 305 304 304 304 303 303 302 301 300 299 299 298 297 296 295 295 295 294 293 293 292 291 291 291 291
315 315 316 317 318 319 321 321 320 321 321 321 322 320 319 319 320 320 321 320 318 317 318 318 318 318 319 319 319 319 320 319 319 318 316 317 320 323 322 319 318 319 318 316 315 314 314 313 313 313 313 313 314 313 313 313 311 309 306 305 304 304 304 303 303 303 302 301 301 300 299 298 298 297 296 295 294 294 293 293 292 291 291 291 290 289
316 315 316 318 318 318 319 320 320 321 321 320 318 318 318 320 321 320 320 320 319 318 318 318 318 318 318 318 321 322 321 320 319 318 316 318 323 325 325 324 321 316 313 312 312 311 312 313 312 312 312 312 313 313 313 312 310 308 306 304 303 303 302 302 302 302 302 301 301 300 299 298 297 296 295 294 294 293 293 292 291 291 291 291 290 289
317 316 316 317 318 318 319 320 320 320 319 320 319 318 319 322 323 322 322 321 319 318 318 319 319 319 318 320 323 323 321 320 320 319 317 318 322 324 322 324 321 312 308 309 310 309 310 311 310 310 310 310 310 311 311 310 308 307 304 303 303 302 301 301 301 302 301 301 300 299 299 298 297 296 296 294 294 293 293 292 291 290 290 290 290 290
316 316 316 316 317 318 318 319 320 318 318 321 322 320 321 324 323 323 322 322 320 319 320 319 319 319 319 321 323 323 323 322 319 318 317 318 322 322 316 315 318 314 308 308 308 308 309 309 307 307 307 307 307 307 307 307 307 305 304 303 302 300 300 301 301 301 301 300 299 299 298 298 297 297 296 295 294 293 292 292 291 290 290 289 289 290
316 316 316 317 317 317 318 319 319 318 319 322 321 320 321 322 322 321 322 322 321 324 326 322 319 320 320 321 322 321 320 320 318 318 319 318 318 318 313 307 309 310 307 306 306 306 306 306 305 304 304 304 304 304 304 305 305 304 303 302 300 300 302 302 301 300 299 299 299 298 298 297 297 297 296 295 294 292 292 291 291 290 289 289 289 289
316 316 316 317 317 317 317 318 318 318 320 321 320 319 319 320 320 320 321 322 322 324 328 327 323 321 321 322 323 322 320 320 321 321 321 316 312 314 314 309 307 308 307 305 305 304 303 303 302 302 302 302 302 302 302 302 302 303 302 300 300 301 302 301 300 299 299 299 298 298 297 297 296 296 295 294 294 293 292 291 291 290 290 289 289 288
316 316 316 317 317 317 317 318 318 318 319 318 318 318 318 317 318 317 316 318 318 318 320 321 318 316 317 320 322 322 319 319 318 316 315 313 310 310 311 309 307 307 305 303 303 303 301 300 300 300 301 301 300 300 300 300 300 301 299 299 300 301 300 299 299 298 298 298 297 297 296 296 296 296 295 294 293 293 292 291 290 289 289 288 288 287
315 316 316 316 317 317 317 318 318 318 318 319 318 318 317 315 313 312 312 313 313 311 311 311 310 309 311 314 315 314 313 312 312 310 310 311 310 310 310 308 305 303 301 300 302 302 300 299 298 299 300 300 299 299 299 299 299 298 298 298 300 299 298 298 298 297 297 297 296 296 295 295 295 295 294 294 293 292 291 290 289 288 288 288 287 287
313 314 314 315 316 316 315 316 316 316 317 319 316 314 314 312 309 309 310 311 310 309 308 309 309 308 308 308 308 309 309 309 309 309 309 308 309 309 308 306 303 302 301 300 301 301 300 298 297 297 298 299 299 298 298 297 297 297 297 297 298 297 297 297 297 296 296 295 295 294 294 294 293 293 293 292 292 291 290 289 288 287 287 287 287 286
311 310 312 314 314 314 314 313 313 313 313 313 312 311 311 311 309 309 309 309 309 309 308 307 308 307 306 305 305 306 307 307 308 308 307 307 308 307 306 304 302 301 300 299 300 300 299 297 296 296 296 297 298 297 297 296 296 295 296 296 296 296 296 296 295 295 295 294 293 293 293 292 291 291 291 291 291 290 289 288 288 287 286 286 286 286
309 308 310 312 312 313 314 312 309 309 310 311 311 310 309 309 309 309 308 307 308 308 307 307 306 306 306 305 305 306 306 306 306 306 305 306 306 306 306 306 303 300 299 298 299 299 298 296 295 294 294 295 297 297 295 295 295 295 295 295 295 295 295 295 294 294 293 292 292 292 291 291 290 290 290 289 289 289 288 288 287 287 286 286 286 285
308 307 308 309 309 311 311 308 306 307 309 310 310 308 306 307 308 308 307 306 306 307 307 307 307 306 306 305 305 305 305 305 305 305 305 305 304 304 305 304 302 300 299 298 298 297 296 294 293 293 293 294 295 295 294 294 294 294 294 294 294 294 294 294 293 293 292 291 291 291 290 290 290 289 289 289 289 289 288 288 287 287 287 286 286 286
305 305 306 306 306 307 307 307 307 308 308 309 309 307 306 307 308 309 308 306 306 306 306 307 307 306 306 306 306 305 305 305 305 304 304 304 304 304 303 302 300 299 298 298 296 296 295 294 293 293 293 293 294 294 293 293 292 292 293 293 293 293 293 293 292 292 291 291 290 290 290 290 289 289 289 288 288 288 288 288 288 287 287 287 287 287
302 303 305 305 305 305 305 306 307 306 306 307 306 307 307 308 307 307 307 306 306 305 305 305 306 305 305 304 304 304 305 305 304 304 304 303 303 303 302 300 298 298 297 297 296 295 294 293 293 292 292 293 293 292 292 291 292 291 292 292 292 292 292 292 291 291 290 290 290 289 289 289 288 288 288 288 287 287 287 287 287 287 287 287 287 287
301 301 302 303 303 303 304 305 305 304 306 307 306 306 307 307 307 307 306 305 305 304 304 304 304 305 305 303 301 302 304 305 304 303 303 303 301 300 299 298 297 297 297 296 295 293 292 292 292 291 291 292 292 291 290 290 290 290 291 291 291 292 292 291 290 290 289 289 289 288 288 288 288 288 287 287 286 286 286 285 285 286 287 287 286 286
Wind_Speed
1 1 2 3 5 5 7 8 4 2 5 4 3 2 3 3 2 1 3 1 1 1 5 6 7 10 9 9 9 8 8 9 9 9 9 8 7 8 9 9 9 9 9 12 19 26 29 29 29 28 27 26 26 27 28 28 29 30 30 29 28 28 27 26 27 27 27 27 26 27 27 26 24 24 25 27 29 29 30 29 28 27 25 26 26 28
2 1 4 6 6 1 3 6 3 3 3 3 3 2 3 3 5 1 4 2 2 2 4 5 7 11 11 9 8 8 9 10 11 11 11 10 9 8 9 11 11 9 8 9 13 19 23 24 24 25 25 26 27 28 29 30 30 30 30 30 29 29 29 28 29 29 29 29 28 28 29 28 26 26 27 27 28 29 30 30 29 28 27 26 26 28
1 4 6 5 2 5 5 4 5 3 2 2 1 1 3 3 2 2 4 3 2 2 4 6 6 10 12 11 11 11 11 11 11 11 11 10 10 10 9 9 9 9 8 7 8 11 18 20 21 22 23 26 27 27 28 29 29 29 29 29 29 28 29 29 28 28 28 28 27 26 25 26 25 26 27 26 26 27 28 29 29 28 27 26 27 31
3 4 5 2 5 5 4 4 4 2 1 2 2 1 3 2 1 1 1 3 4 4 3 6 6 8 11 12 13 13 12 11 11 11 11 10 11 12 10 8 8 8 8 8 7 9 14 18 20 22 23 24 24 24 25 26 26 27 27 27 28 28 29 28 27 27 26 23 23 22 20 22 24 24 24 23 24 26 26 27 27 27 27 27 29 33
3 1 1 4 4 3 4 3 3 3 2 4 5 4 4 2 1 2 1 1 3 2 1 4 6 6 8 9 10 9 8 9 9 10 11 11 11 11 10 8 8 8 7 7 8 8 11 15 19 21 21 21 22 23 24 25 26 26 26 27 27 28 28 28 28 26 24 20 21 22 21 22 23 21 21 22 24 25 25 26 26 26 27 28 31 35
3 0 0 5 3 2 5 4 5 5 3 4 5 6 5 3 3 2 5 5 4 3 1 1 4 5 3 5 8 7 5 6 6 8 11 11 10 9 9 9 8 8 7 7 8 9 11 14 16 17 18 20 22 23 24 25 26 26 27 27 26 26 26 26 27 25 24 23 24 26 26 26 24 23 24 26 27 27 27 26 26 26 26 29 32 34
1 1 1 6 5 4 4 3 5 6 3 3 4 2 0 2 4 4 5 3 2 4 3 2 1 5 4 4 9 8 7 8 6 8 10 9 8 8 8 8 7 7 7 7 7 8 10 12 14 16 19 22 22 23 23 23 25 25 25 26 26 25 26 26 25 25 26 26 26 28 29 28 27 26 26 26 26 27 27 26 25 25 26 28 30 32
3 2 1 5 4 4 4 3 4 8 4 2 4 4 4 4 2 2 3 1 2 5 4 5 5 5 6 6 11 12 11 10 8 9 10 8 8 8 8 8 8 7 7 6 6 7 9 12 16 18 20 22 21 21 21 22 24 24 23 24 25 25 25 26 25 25 27 27 27 28 28 26 26 25 24 23 24 25 26 25 25 25 26 28 30 31
2 5 5 6 4 4 4 1 3 8 4 1 3 2 5 5 3 2 2 2 2 5 5 4 6 3 7 5 8 10 10 8 9 10 9 8 8 7 5 5 6 5 6 7 7 7 8 13 17 18 19 20 19 20 20 22 23 23 23 23 25 25 25 25 26 26 27 26 27 27 27 25 24 22 21 21 23 23 24 25 25 25 27 28 30 31
2 3 3 5 4 4 3 4 2 4 3 3 2 5 6 4 4 3 1 2 3 4 4 5 6 2 8 5 6 7 7 7 9 9 8 8 7 5 5 6 7 6 6 7 6 6 8 14 16 15 17 18 18 19 20 21 22 23 23 23 25 25 25 25 26 27 26 26 26 26 26 25 23 21 20 21 23 24 25 25 25 27 28 29 30 31
1 1 1 1 1 3 5 4 5 4 5 5 4 5 5 3 4 3 1 3 3 4 4 8 10 3 5 4 5 6 6 7 7 5 6 7 4 6 6 7 7 6 5 6 6 6 8 12 14 14 16 17 18 19 20 21 23 24 24 24 25 25 25 25 26 27 26 26 26 26 27 26 25 23 23 24 25 26 27 27 27 29 30 30 31 31
2 1 1 0 1 3 5 4 5 5 3 3 3 4 3 2 3 3 2 3 1 6 4 6 10 7 5 5 1 3 5 7 7 5 6 5 2 5 6 6 7 6 6 6 6 6 7 9 11 14 16 17 19 20 22 23 23 24 25 25 25 25 25 25 26 27 26 26 27 27 27 27 27 25 25 26 27 28 28 28 29 29 30 30 31 31
1 3 3 1 2 2 4 4 4 5 2 1 4 5 4 1 1 1 1 1 3 6 4 1 5 5 9 5 3 5 3 5 6 4 4 2 1 2 6 6 6 6 7 6 6 6 6 6 9 13 16 18 21 22 23 24 24 25 25 25 26 26 25 24 26 26 24 25 28 29 27 27 27 27 27 27 27 28 28 29 30 30 31 31 31 32
1 2 4 4 2 3 5 5 3 0 2 4 5 6 5 3 2 3 3 2 4 5 3 2 3 4 7 3 6 10 10 9 7 4 4 3 4 5 5 7 6 6 7 6 6 7 6 7 10 14 16 19 21 23 24 24 25 25 25 25 26 26 26 25 25 25 24 25 28 31 30 27 27 27 28 28 28 29 29 29 31 33 33 33 33 33
5 4 5 8 3 5 7 6 6 6 5 6 5 4 5 5 4 4 3 3 4 3 2 0 1 3 3 2 4 3 5 5 6 7 6 5 7 6 4 6 6 6 6 6 7 7 7 9 13 15 17 19 21 23 24 24 25 25 25 26 26 27 28 27 25 25 25 25 27 31 32 29 27 27 29 29 28 29 30 30 32 33 34 34 34 34
7 6 5 6 5 12 12 7 6 7 3 4 2 2 4 4 3 2 2 3 2 2 3 2 4 5 3 6 7 4 7 5 5 7 7 7 8 4 4 6 6 6 6 6 7 7 8 11 15 17 18 19 21 22 23 24 25 26 25 26 27 27 27 29 28 27 26 25 26 30 32 31 29 28 29 29 29 29 30 30 31 32 33 33 34 35
5 3 1 3 3 8 8 5 4 4 3 3 3 4 4 1 3 2 2 1 4 2 5 3 6 6 3 8 9 10 12 9 5 5 7 8 8 6 7 8 6 6 7 7 8 8 8 11 15 18 19 20 21 22 24 25 26 27 27 26 27 27 27 28 29 29 27 25 26 29 31 31 30 29 29 30 29 29 28 28 29 29 31 32 33 35
5 1 3 1 2 1 2 1 1 2 2 4 4 5 1 4 2 2 0 2 1 5 5 3 8 8 4 6 4 4 9 9 6 7 8 8 8 8 8 8 9 6 7 7 8 8 8 10 14 17 19 20 22 23 24 25 26 27 27 27 27 28 28 28 28 28 28 26 26 28 30 31 31 29 30 30 30 29 28 28 29 29 31 31 32 34
4 3 3 2 1 2 3 1 1 2 3 4 2 2 3 1 2 2 2 2 3 5 5 4 8 7 6 7 5 4 7 8 8 9 9 9 9 8 8 9 11 6 6 6 6 7 7 9 13 16 17 19 20 22 23 24 25 26 27 27 28 28 28 28 27 27 27 26 26 27 29 31 31 30 30 31 30 30 30 29 30 31 31 31 31 32
3 4 3 3 3 1 2 1 5 2 2 2 2 2 2 2 3 4 3 3 3 4 5 6 7 6 6 6 7 10 10 10 10 8 8 9 9 8 8 9 10 7 6 7 6 7 6 8 13 15 17 18 19 21 22 23 25 27 28 28 28 28 27 27 27 28 28 26 25 27 29 31 31 30 31 31 31 31 31 31 31 31 31 31 31 32
2 4 4 2 4 0 2 5 9 9 6 3 2 2 3 2 2 1 1 2 4 3 3 4 8 8 5 4 8 10 9 10 10 8 8 9 8 8 8 8 8 7 6 6 6 6 6 7 11 13 14 16 18 19 21 24 26 27 28 29 29 29 28 28 28 28 29 28 27 27 30 32 33 32 32 32 32 32 32 32 32 32 31 31 32 33
3 4 5 2 1 4 5 5 6 8 9 9 7 8 9 6 4 2 3 3 2 2 3 2 8 11 4 3 4 6 5 7 9 9 8 8 8 8 8 8 7 6 5 5 6 6 5 7 9 11 12 14 17 19 22 24 25 26 28 29 30 30 29 29 29 29 29 29 28 29 30 32 33 34 34 33 33 33 33 33 33 32 32 33 33 33
5 3 4 4 4 5 3 2 2 2 2 4 4 6 7 6 5 5 5 4 2 3 4 1 6 12 4 4 3 5 6 5 6 6 7 6 4 3 5 4 4 3 4 6 6 5 6 8 10 12 13 15 17 19 22 24 26 27 28 29 30 31 31 30 30 30 30 30 29 29 29 30 32 34 34 34 35 35 34 34 34 33 34 35 35 35
4 2 3 3 1 1 1 1 2 4 4 0 3 2 3 6 7 6 4 4 3 5 5 3 7 11 1 4 2 4 6 4 4 5 5 1 4 2 3 4 4 4 4 5 5 5 6 8 10 11 12 15 18 20 23 25 26 27 28 29 30 31 31 30 29 29 30 31 30 29 29 31 32 34 35 36 36 36 35 35 35 34 34 35 36 36
4 4 5 3 2 1 0 1 1 2 2 1 3 3 5 8 8 3 1 1 2 7 9 6 9 11 2 3 1 3 4 3 1 1 1 1 5 4 4 5 6 7 5 4 5 5 6 6 7 9 13 16 19 21 24 26 27 28 28 29 30 30 30 30 30 30 30 31 31 29 30 32 34 36 37 38 37 37 37 36 36 36 35 35 35 35
5 5 6 7 7 7 6 4 4 3 2 2 5 8 9 9 9 6 3 3 6 10 10 7 9 13 7 2 4 3 3 4 4 4 3 4 5 5 4 5 6 6 6 7 8 6 6 6 7 9 13 16 19 22 24 25 27 28 28 29 30 30 30 30 31 31 31 32 32 32 32 33 35 38 39 40 39 38 38 37 37 37 36 36 35 35
3 3 7 10 10 11 8 5 6 8 7 6 10 12 12 12 12 8 5 7 10 9 8 11 12 17 17 8 1 3 2 4 6 5 4 5 6 6 6 7 6 5 6 6 5 5 7 8 9 10 14 18 21 23 25 25 26 27 27 28 30 30 31 31 31 31 32 33 33 34 34 35 37 38 39 39 39 38 38 38 38 37 37 36 35 35
3 3 8 11 13 13 7 2 7 12 11 13 15 14 14 13 13 11 10 12 12 8 11 15 13 15 24 17 9 8 8 7 7 7 6 6 6 7 7 7 7 7 7 5 4 7 9 9 9 10 14 19 22 23 25 25 26 26 28 30 31 31 32 32 32 32 33 33 34 36 37 36 36 37 37 38 38 38 38 38 38 38 37 36 36 36
5 4 7 9 11 13 8 2 4 7 8 11 14 15 16 16 16 16 17 19 16 11 12 15 13 16 22 17 8 7 8 10 9 7 6 7 7 6 7 8 9 8 8 7 8 9 9 9 9 9 13 18 20 22 24 25 26 28 29 31 31 32 34 33 33 34 33 33 36 38 37 35 35 36 36 37 37 38 38 38 38 38 37 37 37 37
3 4 5 4 5 9 10 6 4 5 4 4 7 9 11 14 18 19 21 22 19 14 14 15 16 17 18 16 11 8 8 10 10 8 9 11 12 10 9 9 9 9 9 9 9 9 9 10 11 11 12 15 19 22 24 26 29 30 31 32 31 33 34 34 34 35 35 35 37 37 34 34 34 35 35 36 38 38 38 37 37 36 37 37 38 38
1 3 2 1 2 8 11 8 5 5 5 4 6 6 6 10 16 19 19 16 13 14 16 17 18 18 16 13 13 13 11 10 12 14 13 13 13 10 7 8 9 9 9 9 9 9 9 11 12 11 10 14 19 24 26 28 30 31 31 32 34 36 35 34 34 35 36 37 38 35 33 33 34 35 36 37 38 38 37 37 36 35 36 36 37 37
2 1 1 3 2 9 11 9 7 5 4 5 7 9 12 14 12 11 11 10 12 15 15 14 13 15 14 11 11 15 15 11 12 16 15 12 11 9 8 11 11 9 9 9 9 10 11 11 11 11 12 16 21 25 27 30 30 30 32 35 38 38 35 34 35 36 36 37 36 34 34 34 34 36 37 37 37 38 37 36 35 35 35 36 36 36
4 3 1 3 4 9 12 9 5 3 4 6 10 15 19 18 13 9 8 11 15 13 10 10 11 12 13 12 11 15 16 14 12 13 14 14 12 9 8 11 11 10 9 9 9 10 11 11 10 12 16 19 22 25 30 33 32 33 37 40 39 35 33 34 36 36 36 35 35 35 35 35 34 36 38 38 37 36 36 36 36 37 37 36 35 34
6 6 3 3 3 6 9 3 1 4 7 8 11 15 18 18 16 16 16 18 17 12 10 11 11 12 13 14 15 16 15 14 13 12 14 15 12 7 7 10 12 10 9 9 10 11 11 10 13 17 21 22 23 26 30 33 34 36 39 38 35 33 33 35 36 36 35 35 36 36 35 35 36 37 38 37 36 35 36 37 37 37 37 36 35 35
7 7 4 3 2 3 2 1 2 7 8 7 7 10 14 18 19 19 19 19 17 15 14 13 14 16 16 16 16 15 14 15 14 14 17 18 13 7 8 12 13 11 11 13 13 12 12 12 15 20 22 22 23 23 25 28 32 36 35 33 31 32 34 35 35 35 35 35 35 35 36 36 37 36 36 36 36 36 36 36 37 36 36 36 37 38
9 7 4 3 3 2 1 4 6 5 2 3 5 7 11 13 12 10 12 15 16 16 15 16 18 18 16 16 16 14 13 14 13 14 18 17 11 7 9 14 14 11 12 13 12 12 14 15 18 21 22 22 22 21 21 24 28 31 31 30 31 32 33 34 33 33 34 35 35 36 37 37 37 36 36 36 36 37 37 37 37 37 36 36 36 36
9 7 4 4 4 4 5 7 6 5 5 7 9 9 7 6 7 8 9 12 13 14 15 16 16 16 16 16 14 12 12 10 10 15 15 8 6 9 12 13 13 11 11 13 13 15 18 20 21 22 23 23 23 22 23 25 25 26 27 27 28 30 31 32 32 33 35 37 36 36 37 38 37 36 35 35 36 37 38 38 37 37 36 36 35 36
9 8 7 6 5 5 6 7 6 7 8 10 14 11 6 7 9 10 8 8 9 11 12 12 13 16 15 13 11 10 9 7 9 14 10 3 6 11 11 11 11 8 7 11 13 16 18 18 18 20 21 21 22 23 23 23 22 23 24 25 27 29 29 30 32 34 36 37 36 36 37 37 37 36 35 36 37 38 37 36 35 35 36 36 36 36
11 7 7 6 6 6 7 7 7 8 7 9 12 9 4 9 9 6 5 8 10 10 8 7 11 14 11 9 9 8 6 6 8 11 9 5 7 8 7 7 8 8 8 10 11 13 18 19 19 20 20 19 21 23 21 19 19 21 23 25 27 27 27 30 34 37 37 36 35 34 34 35 35 35 36 37 37 36 34 33 33 33 33 34 34 34
11 7 5 6 7 8 8 7 6 5 5 7 8 6 4 7 8 6 5 8 7 7 7 8 12 13 9 9 8 6 6 7 8 11 11 6 3 4 3 4 7 9 11 14 14 15 19 20 19 20 20 20 21 21 18 16 17 20 23 25 24 25 28 33 36 36 34 32 30 30 32 33 34 35 36 36 35 33 32 31 30 30 30 31 31 30
7 6 6 8 9 10 11 9 6 3 4 7 7 5 2 3 6 6 9 6 3 5 7 9 11 10 9 9 7 5 7 9 9 11 10 5 6 6 7 7 10 12 15 18 18 16 17 19 18 18 19 19 19 19 17 15 16 20 23 22 22 27 33 35 32 29 27 27 28 29 31 32 33 34 34 34 33 31 30 30 30 30 30 30 29 28
4 4 4 7 9 9 9 9 7 4 5 6 5 2 2 3 4 6 5 2 3 4 5 6 8 7 7 8 6 7 8 9 8 10 10 7 5 5 8 9 11 12 16 21 22 19 18 20 20 19 19 18 17 16 15 14 16 21 20 20 25 31 32 28 25 24 25 26 26 28 30 31 32 32 31 31 32 31 30 30 30 30 30 30 28 26
4 4 3 4 5 4 5 7 6 3 3 3 2 1 2 3 2 2 4 5 6 6 6 6 3 3 4 5 5 6 7 8 9 9 10 10 8 5 6 7 8 10 12 17 21 22 20 19 21 22 23 21 17 15 14 13 18 20 19 22 28 28 24 21 21 22 23 24 25 26 27 29 29 29 30 30 31 31 30 28 28 28 28 28 26 23
3 4 4 3 3 3 4 5 4 3 3 3 3 2 0 2 4 5 4 5 7 6 6 6 7 7 6 5 6 8 9 10 11 11 11 12 11 7 6 7 7 9 11 14 18 21 20 18 20 23 24 22 19 17 14 14 17 19 20 24 25 21 17 18 18 19 21 22 23 23 24 26 27 28 29 29 29 29 27 26 26 25 25 25 25 23
4 3 2 2 3 4 4 3 3 4 3 2 1 3 4 4 4 5 5 4 4 4 4 5 7 6 5 4 5 6 7 9 11 12 12 12 11 9 8 8 8 10 13 15 19 20 19 18 20 22 24 24 19 16 16 16 17 19 22 22 20 16 15 16 17 18 20 21 21 22 23 24 26 26 27 27 28 28 26 24 24 23 23 24 23 22
1 1 1 1 2 4 3 4 5 3 4 5 3 4 6 5 4 5 6 5 4 4 4 4 6 7 6 5 5 5 6 7 9 11 11 11 12 11 9 9 11 12 13 15 18 20 19 18 19 20 23 25 22 18 17 16 17 20 21 18 14 13 14 15 17 18 19 20 20 21 23 23 23 23 24 25 26 26 25 25 25 23 23 22 22 22
2 3 2 1 2 3 2 3 3 4 5 5 3 4 5 4 5 5 4 3 4 5 6 5 6 7 7 6 5 6 7 7 7 9 10 10 11 12 11 11 12 13 14 14 16 18 18 16 17 18 19 23 24 20 18 17 17 18 18 14 12 12 14 16 17 18 19 20 20 21 23 23 23 23 23 23 24 23 22 23 23 22 21 20 20 20
1 2 2 1 3 2 3 6 6 5 5 2 2 4 5 5 5 4 3 3 4 5 6 6 6 6 6 7 6 7 8 9 8 8 9 8 9 11 11 12 13 15 17 16 15 15 15 14 16 17 18 22 24 21 18 18 17 16 15 14 13 14 15 16 18 18 19 20 21 23 24 25 25 25 24 24 23 23 23 23 23 23 23 24 24 24
0 1 1 2 2 2 5 7 7 5 4 3 4 6 6 5 5 6 6 6 5 5 6 7 6 6 6 7 7 6 8 10 9 8 8 9 9 10 10 12 15 18 20 18 15 13 14 15 17 18 19 22 21 18 16 17 15 14 14 14 15 16 17 18 18 19 20 21 22 24 24 25 26 27 26 25 24 23 23 24 25 26 25 24 25 26
2 1 3 2 2 3 4 2 2 2 4 5 5 6 6 5 5 7 8 9 8 7 7 7 8 7 7 7 7 6 7 9 9 9 8 8 9 10 11 13 16 19 21 20 16 14 15 17 19 20 21 21 19 15 14 15 14 13 13 13 15 17 19 20 20 20 21 22 22 23 24 24 24 24 25 24 24 22 19 18 20 22 22 21 21 22
3 3 3 2 3 5 6 3 1 2 4 6 6 5 5 6 7 8 9 9 9 8 7 7 8 9 9 9 8 7 7 9 10 9 9 9 11 12 14 16 16 17 20 21 17 16 17 18 17 18 19 19 16 13 13 13 12 11 11 12 14 17 20 22 22 20 20 21 22 23 25 24 23 24 23 23 23 23 20 17 14 14 16 17 17 18
Wind_Direction
54 149 195 216 218 207 208 208 209 40 38 9 12 28 324 331 307 97 104 210 294 298 248 244 262 271 264 256 258 262 264 261 258 257 254 244 234 231 233 238 238 236 235 222 209 204 204 204 202 201 199 196 196 196 196 198 200 201 201 204 206 205 206 206 205 207 207 206 204 201 206 210 212 218 220 221 224 225 224 221 217 215 213 210 210 212
72 209 223 215 218 204 195 190 143 70 41 20 8 345 316 288 268 276 112 172 51 51 270 277 276 274 271 262 256 251 253 255 251 251 253 249 245 239 234 235 236 238 238 221 208 198 194 195 196 196 195 193 194 196 197 199 199 199 200 203 206 204 204 207 207 208 209 208 207 205 207 210 212 219 222 221 223 223 223 222 218 215 212 211 211 210
144 224 235 218 150 72 59 72 76 48 18 65 93 312 292 270 283 13 93 146 113 104 263 282 279 272 276 272 261 248 243 247 245 244 247 247 248 246 239 237 233 233 230 211 190 176 177 183 188 191 194 196 197 198 199 200 200 198 199 202 205 204 204 205 207 209 211 211 210 207 206 207 209 217 222 223 222 220 220 220 219 215 213 215 215 210
182 224 229 153 95 95 81 67 84 81 22 181 179 210 250 218 108 311 211 173 187 197 261 295 288 271 271 271 267 256 242 245 247 246 249 246 245 247 244 241 233 226 220 203 181 164 169 178 184 190 194 196 198 200 200 200 200 198 199 201 203 205 204 203 205 209 211 212 208 202 202 206 208 212 217 219 219 219 219 219 218 216 215 217 215 209
197 205 199 102 96 134 128 129 156 163 212 217 203 201 229 239 186 218 321 3 236 224 338 312 298 273 248 244 263 270 244 237 241 240 247 247 244 249 253 249 237 229 218 193 181 175 174 182 189 192 194 196 197 200 202 200 200 201 202 204 206 207 205 203 204 206 205 202 196 194 197 202 204 207 209 210 212 213 214 214 214 213 213 213 211 208
210 254 126 112 116 171 145 172 185 175 207 229 217 209 223 282 336 351 7 7 338 327 325 346 319 296 260 223 250 273 246 227 225 225 236 245 244 243 248 248 239 235 229 202 184 180 184 187 188 191 193 196 200 203 204 204 203 205 205 205 206 207 205 203 204 204 202 199 193 193 194 195 196 200 205 207 208 206 206 207 207 206 206 206 206 206
158 327 16 124 140 150 155 219 195 173 196 243 258 269 237 350 18 11 1 8 338 293 249 149 170 280 295 257 247 252 248 244 237 231 236 241 238 229 231 236 228 222 222 213 188 171 176 178 176 186 195 198 202 205 205 206 205 206 207 205 206 207 206 204 203 203 203 200 197 197 198 199 199 201 206 209 209 206 204 203 203 202 201 202 202 203
119 133 99 124 129 133 163 234 188 170 168 233 286 352 57 62 52 39 20 335 263 304 274 172 160 264 279 245 228 228 241 252 251 248 248 243 233 226 226 219 203 195 188 180 178 167 164 171 177 187 196 200 204 204 203 204 204 205 207 207 206 207 207 205 202 202 204 202 201 202 203 206 207 207 208 207 206 206 204 202 201 202 200 199 200 201
95 158 165 152 153 159 168 250 187 171 158 243 284 19 77 75 56 69 46 309 311 343 306 183 149 256 277 241 202 206 219 231 238 243 246 250 244 231 216 180 155 149 141 143 168 176 160 170 182 190 194 199 202 201 201 203 203 204 206 206 206 206 208 206 204 204 207 206 205 205 207 210 211 211 211 207 204 204 202 200 200 202 200 196 195 197
31 180 183 159 169 178 127 27 3 143 139 210 181 72 68 68 50 52 25 352 17 330 269 182 161 249 283 257 167 182 203 206 225 233 233 243 237 194 141 124 117 108 113 127 149 159 154 167 179 186 188 192 197 199 200 202 202 202 204 205 204 207 209 209 208 208 208 208 209 210 210 212 210 207 207 205 202 203 202 201 201 202 201 196 194 194
115 145 169 149 151 148 113 56 18 68 121 158 140 79 62 60 49 37 326 59 50 283 235 174 180 197 289 273 152 175 200 189 199 212 227 240 209 147 126 126 130 127 129 127 124 123 132 152 167 174 179 185 190 194 197 199 201 201 202 204 204 207 211 210 210 211 210 209 210 213 213 212 209 203 201 200 200 202 202 202 203 202 200 199 198 196
137 87 111 348 342 131 108 70 22 30 90 121 124 112 84 39 31 30 343 60 118 261 260 179 179 178 239 260 178 191 181 177 187 182 209 241 166 138 138 135 138 142 147 141 134 130 126 140 160 170 175 180 185 189 194 197 199 200 202 202 202 205 208 209 210 212 213 211 211 214 214 213 211 206 203 201 200 201 200 201 202 200 199 199 200 199
178 194 158 70 316 192 128 93 35 3 359 133 148 133 113 82 17 19 245 158 210 248 284 158 153 204 242 248 254 268 244 205 213 198 204 257 330 168 157 153 152 147 151 155 156 158 156 161 172 176 178 180 185 190 194 197 198 200 202 202 202 204 205 208 211 214 215 214 212 212 212 213 212 210 209 206 205 206 205 203 202 201 200 198 199 201
233 235 154 127 331 235 177 151 138 252 212 183 165 145 145 159 186 228 217 217 237 249 287 44 77 259 271 280 241 253 255 230 215 225 228 216 242 240 188 169 168 164 166 167 168 170 179 186 184 186 185 184 189 193 195 197 199 199 200 202 204 207 207 208 213 216 216 216 215 212 211 211 210 211 211 210 211 212 210 209 207 206 205 204 205 207
203 270 185 172 175 175 191 200 170 153 172 196 185 158 172 172 182 206 190 208 245 279 293 326 112 218 246 274 225 247 287 242 207 222 229 222 232 234 213 193 177 179 181 171 175 183 190 191 187 190 192 192 194 197 198 199 199 199 200 203 205 207 207 207 211 215 216 217 216 213 212 211 210 211 212 212 214 216 215 213 210 209 210 212 214 216
201 247 181 162 162 163 180 210 170 129 147 215 199 187 224 212 178 177 194 186 156 337 292 226 234 223 211 264 259 282 305 273 217 228 230 242 256 260 261 242 206 192 187 177 186 194 194 192 190 192 195 198 199 200 201 201 200 201 202 204 207 208 208 208 211 215 219 220 216 213 213 212 210 210 210 209 211 215 216 215 213 214 218 221 221 219
182 256 48 94 129 163 179 207 175 145 170 189 171 198 220 159 133 166 269 49 97 263 265 202 250 277 306 281 255 238 256 250 216 237 233 234 251 257 262 262 246 210 188 190 196 196 197 192 193 196 197 200 202 202 204 204 204 204 205 206 208 210 211 212 214 218 221 221 216 214 213 212 210 209 208 206 207 211 214 216 219 223 225 224 221 217
154 205 313 74 129 219 284 300 99 51 107 133 174 200 131 39 54 138 173 359 148 247 263 199 244 274 280 276 270 215 241 243 219 225 231 232 238 243 252 264 263 225 175 191 199 194 199 192 193 199 201 204 205 206 207 207 207 208 208 209 209 210 212 213 216 219 220 220 217 216 215 213 212 210 210 208 209 213 216 219 223 223 222 220 217 214
157 189 296 344 3 304 337 47 147 355 60 121 176 204 107 100 246 145 158 231 213 238 268 256 261 265 227 240 281 257 232 224 219 216 219 227 227 232 244 256 265 249 171 184 194 191 193 188 194 199 202 207 208 209 211 209 209 210 210 211 211 213 214 214 216 218 218 218 217 219 219 217 215 213 212 211 213 217 220 221 222 219 217 215 213 212
151 195 248 318 323 340 40 202 196 198 42 50 353 341 97 150 190 170 175 190 179 217 255 276 284 268 218 209 225 233 224 205 210 216 213 218 218 222 233 243 259 256 202 192 192 193 191 185 196 201 203 207 207 208 209 208 209 210 210 211 211 213 215 215 215 215 216 216 217 219 220 219 217 214 213 213 214 218 220 221 220 216 213 211 212 213
110 201 211 322 335 51 175 217 199 179 168 177 214 214 189 142 125 140 253 190 164 194 234 275 281 262 225 199 205 213 217 199 191 197 208 217 213 212 224 232 241 242 216 196 182 184 185 181 190 200 207 208 208 207 207 208 209 210 211 211 210 211 213 213 213 214 216 216 217 219 219 218 216 215 214 215 216 217 219 219 218 215 213 211 212 214
168 195 175 143 258 211 211 221 203 187 185 190 193 197 198 181 148 170 249 226 156 185 204 217 275 267 229 168 183 172 174 180 177 180 192 206 209 213 232 232 221 222 208 173 157 165 172 171 176 190 202 206 207 207 207 208 209 210 212 213 212 210 211 212 212 212 215 217 217 218 218 216 215 214 214 214 215 216 216 217 217 217 215 212 212 213
180 158 161 176 194 200 211 195 158 144 170 208 218 208 194 178 169 180 210 214 162 225 236 188 272 270 232 138 135 116 118 142 155 149 147 173 210 227 239 221 176 187 186 153 149 164 171 171 176 186 197 204 209 211 211 211 210 211 213 215 215 212 210 212 213 213 214 216 216 217 217 217 215 214 213 213 214 215 215 216 217 218 217 213 212 213
174 150 173 190 184 101 48 71 76 62 68 300 261 215 165 190 197 187 192 192 164 203 217 193 250 264 294 95 116 94 87 88 85 87 97 77 315 302 201 182 157 175 175 151 157 168 161 166 177 185 195 207 213 214 216 216 214 213 214 216 218 216 212 211 213 214 215 215 216 216 216 217 216 214 213 213 214 215 216 216 217 218 217 215 213 214
178 181 167 162 199 246 326 328 337 23 99 195 232 204 203 206 193 166 175 206 207 212 201 192 242 254 270 71 101 109 109 123 123 103 119 256 273 245 198 198 205 194 174 177 191 178 165 177 191 196 200 210 217 218 220 220 218 217 216 217 219 220 216 211 210 213 215 215 216 215 214 215 215 215 214 213 213 215 216 216 217 218 217 216 215 216
179 186 173 175 202 215 218 215 202 179 154 202 215 204 210 203 182 173 179 196 229 229 211 206 245 254 253 78 57 62 138 196 238 246 240 244 246 240 231 237 232 205 187 199 196 182 189 204 213 214 210 214 221 224 225 224 223 221 218 218 220 222 220 213 209 211 214 216 215 213 214 214 215 215 214 212 212 213 215 216 217 217 217 217 217 216
147 202 198 196 209 215 218 216 180 154 150 198 213 206 206 204 195 186 172 199 222 232 233 228 237 259 262 245 228 304 247 223 248 251 252 260 258 251 249 254 255 237 220 214 192 193 212 214 215 219 218 219 222 226 228 228 228 226 222 220 220 222 223 218 211 209 213 216 216 216 216 215 215 216 215 213 212 212 214 215 216 217 217 217 217 216
123 216 216 210 225 230 225 195 164 161 172 198 208 206 204 202 198 197 206 218 216 216 242 238 225 250 262 253 231 247 259 255 251 248 250 252 247 242 244 252 255 252 254 254 227 221 225 227 228 224 222 222 223 226 228 229 231 230 228 226 221 220 222 220 213 209 211 215 217 220 220 217 216 216 216 215 213 213 214 214 215 216 216 216 216 215
139 217 229 215 236 247 246 234 178 182 190 199 205 208 204 200 198 203 217 225 219 212 236 245 230 236 257 265 245 225 250 265 262 257 264 271 273 271 266 260 253 252 258 254 241 237 236 240 240 231 229 226 222 223 227 228 230 230 230 231 226 221 222 221 214 210 210 213 218 221 222 218 215 215 215 215 213 213 213 213 214 215 214 214 214 214
148 218 236 214 255 264 258 251 231 240 253 232 229 225 206 200 203 208 218 224 227 232 241 253 256 251 258 271 272 256 259 276 286 289 287 287 286 281 271 262 251 246 248 244 241 244 243 247 247 242 238 229 219 220 224 225 227 227 227 229 228 225 223 221 216 211 209 213 219 221 222 220 216 213 213 213 213 212 212 212 213 213 213 213 213 212
161 221 233 89 303 271 265 262 254 260 273 272 282 286 256 225 215 216 223 227 233 244 246 251 261 264 262 268 279 282 277 280 288 286 281 279 279 280 277 266 252 243 248 252 254 257 254 255 257 254 247 233 225 224 224 225 227 228 227 228 228 227 224 219 217 214 211 214 218 220 221 220 217 213 212 212 212 211 211 210 210 211 211 211 211 210
147 225 39 84 230 256 257 257 255 259 273 272 270 264 253 245 233 221 219 219 223 233 242 248 255 261 265 270 277 279 276 274 274 277 279 277 274 276 278 273 265 253 253 259 262 263 262 262 262 260 254 246 236 229 228 229 228 225 226 228 229 227 223 218 218 217 215 215 217 218 219 219 217 214 211 211 210 209 209 209 209 210 210 210 209 208
145 156 124 149 201 252 253 251 249 241 253 254 242 236 236 239 245 246 235 227 225 224 229 240 243 252 267 274 269 268 272 272 268 272 278 278 275 268 260 266 267 259 257 262 262 262 264 265 262 257 258 256 246 238 238 236 229 226 230 232 230 226 220 217 219 219 217 216 215 216 217 216 216 215 212 210 209 207 206 207 208 209 209 209 208 206
166 168 193 181 181 246 251 247 84 229 237 239 232 230 231 232 233 236 238 238 234 228 229 240 249 255 260 263 261 262 268 271 271 273 275 275 278 279 271 271 272 272 275 271 265 267 269 271 272 268 267 267 262 256 251 243 236 236 238 235 229 223 218 217 218 218 218 217 215 215 215 214 215 216 214 210 207 206 205 206 206 207 207 206 204 203
174 182 193 182 190 249 251 114 205 233 234 239 233 222 225 229 228 230 238 243 242 241 242 245 250 252 251 256 261 265 271 275 277 278 275 276 284 293 285 278 276 278 281 277 273 274 273 271 275 277 277 278 278 274 262 249 243 242 239 233 227 222 219 218 218 218 219 218 216 214 214 214 214 215 214 210 207 205 205 206 206 205 205 204 204 204
174 186 187 175 198 235 210 206 230 250 281 278 258 226 218 224 225 229 245 247 241 239 241 241 245 250 254 259 263 268 273 278 281 273 269 277 290 285 268 272 275 270 268 270 270 269 270 273 278 284 288 290 291 287 275 262 252 243 235 230 226 222 220 219 218 219 219 219 218 215 213 213 212 212 212 209 205 205 205 206 206 205 203 203 204 205
176 176 180 200 197 197 223 233 247 291 299 269 254 235 204 188 187 197 231 246 237 230 232 239 246 251 253 255 262 270 274 282 286 275 269 270 264 250 248 259 268 265 262 269 272 273 277 282 287 293 297 297 294 289 282 274 260 243 233 227 223 221 220 218 219 220 220 221 220 216 214 213 211 210 209 206 205 205 205 206 206 205 203 201 201 203
194 184 184 204 199 191 226 241 244 255 254 247 250 244 191 169 184 187 207 244 248 233 226 230 241 247 250 254 258 265 273 280 275 275 278 231 220 247 258 261 269 279 284 287 292 295 298 300 300 300 299 295 291 288 285 278 261 241 230 224 221 221 219 217 220 222 222 223 222 218 215 214 211 208 206 205 206 206 205 204 205 204 203 202 202 203
211 202 191 206 206 195 214 228 232 239 239 241 257 267 212 186 178 154 189 239 250 241 221 216 240 248 249 250 245 243 255 265 263 272 284 264 239 260 278 283 296 315 317 307 308 308 306 307 306 302 299 295 291 292 293 282 260 239 229 225 223 220 218 220 224 225 225 225 223 219 216 213 211 209 206 206 207 206 204 203 203 203 203 203 203 204
207 206 204 214 216 212 217 226 230 235 244 249 260 278 243 185 145 134 221 247 250 234 200 202 236 247 240 238 240 225 225 242 252 265 277 290 312 310 309 318 318 315 311 311 313 311 308 308 308 306 306 304 301 301 300 284 259 240 233 231 225 221 223 228 230 228 227 226 223 220 217 214 212 210 208 206 206 205 203 202 201 201 202 203 203 204
202 203 206 213 221 222 223 234 248 242 235 246 253 257 236 132 132 191 231 232 202 205 196 200 224 237 232 230 234 223 225 237 250 266 284 344 22 336 307 311 310 307 310 313 316 320 317 311 309 307 306 306 305 303 297 280 256 244 241 235 227 229 234 236 235 232 228 226 222 219 216 215 213 211 209 207 204 202 201 201 201 201 201 202 202 202
185 198 208 210 221 229 227 233 251 253 222 223 244 252 150 150 198 231 241 231 206 228 239 228 224 231 234 229 226 233 244 255 270 288 308 336 351 313 304 316 320 319 320 319 321 327 325 316 312 309 307 308 307 299 292 277 256 249 246 237 235 240 244 241 236 232 227 223 220 216 213 212 212 209 207 205 202 200 199 200 201 202 201 201 200 199
175 183 209 200 196 216 232 231 236 254 240 204 186 181 179 193 258 333 354 331 313 317 315 301 302 323 309 286 274 278 291 302 309 317 317 315 319 321 312 315 317 315 316 317 316 318 319 316 312 307 308 311 307 298 289 269 256 254 247 243 247 251 249 242 234 229 224 218 215 212 209 207 207 205 203 201 199 197 196 196 199 199 198 197 194 192
193 192 211 208 187 192 215 224 206 191 213 206 171 163 213 24 31 40 29 335 330 354 357 341 347 4 13 4 336 328 330 324 319 321 318 313 319 324 314 310 307 303 306 306 305 307 310 307 303 302 303 304 301 297 289 269 259 257 251 252 258 257 246 238 230 221 215 211 207 205 203 201 202 202 199 197 194 192 191 191 192 193 193 192 189 185
212 212 211 196 213 215 209 228 225 201 215 261 37 73 68 60 55 66 65 28 342 350 2 342 328 336 2 15 340 318 313 310 311 314 312 308 308 307 304 299 290 288 294 295 297 301 302 298 296 297 298 297 294 289 283 272 261 257 257 261 264 253 236 227 216 207 204 201 198 197 195 194 195 195 194 192 191 188 185 184 184 186 187 188 186 183
150 13 335 215 255 266 262 259 260 283 342 346 13 78 88 79 56 56 55 32 333 309 317 311 302 308 316 321 311 291 279 286 296 300 301 301 301 302 300 296 294 292 288 286 290 297 300 299 298 295 294 295 294 285 277 271 258 254 261 266 260 243 228 214 203 198 195 192 191 190 186 182 182 184 186 187 188 187 185 183 182 182 183 183 184 184
75 56 43 247 251 262 277 291 295 313 323 322 355 47 55 48 41 46 40 356 309 297 301 298 294 298 298 291 286 276 273 276 279 284 292 296 297 301 303 303 303 301 292 285 287 294 299 301 299 295 293 294 294 289 281 272 260 253 254 254 242 227 216 205 196 190 185 182 180 177 176 174 171 172 175 178 179 180 180 181 181 178 176 178 178 178
253 43 55 229 226 219 275 308 316 301 279 271 48 32 16 6 2 2 351 314 290 285 292 296 296 301 300 290 280 272 276 278 271 272 282 286 286 294 298 298 300 301 298 294 288 285 285 284 283 286 286 286 290 290 282 272 263 252 241 230 219 210 203 197 191 183 179 176 172 170 171 171 169 169 170 172 174 175 176 178 180 180 182 185 185 183
20 2 285 242 253 272 282 299 318 323 318 350 6 350 346 355 351 341 333 324 315 305 301 299 292 286 285 289 290 283 281 283 277 271 276 281 282 286 289 291 295 296 295 295 291 279 271 269 270 272 274 278 284 284 274 264 259 250 237 224 211 201 192 187 184 180 176 173 171 170 171 171 171 170 168 168 170 174 178 182 185 186 188 192 195 195
93 236 256 264 293 280 265 278 8 353 301 304 317 320 327 348 356 341 326 320 319 314 310 309 303 293 283 281 283 282 280 284 284 279 275 275 277 281 285 289 291 291 292 294 294 281 268 264 265 267 270 276 280 275 262 255 249 241 234 224 211 201 189 180 176 174 173 172 170 170 169 169 169 168 166 164 163 162 164 174 185 189 190 191 195 198
169 205 235 225 238 261 263 256 257 254 258 271 284 298 322 343 346 331 315 311 313 315 317 316 308 306 307 303 295 286 277 279 283 283 279 277 277 277 281 283 283 284 288 292 292 284 275 269 265 263 267 274 275 266 255 249 240 232 227 219 210 201 191 180 172 170 173 174 173 172 170 167 166 165 162 160 158 153 146 143 154 175 188 191 191 193